Showing default

HULIANWANG DIGUI-87, 65995

Orbit data source: Space-Track

HULIANWANG DIGUI-87, 65995 is a payload satellite owned by Zhongguo Xingwang (CN) in LEO that was launched on Thu, 16 Oct 2025 UTC via a CHANG ZHENG 8A launch vehicle from the Wenchang Satellite Launch Center (WSC). Payload-class satellites include a variety of spacecraft equipped with specific instruments for various scientific and technological missions. These include communications satellites like Starlink; space stations such as the ISS; scientific satellites like the Hubble; Earth observation satellites from companies like Planet Labs, Umbra, and HawkEye 360; GPS; miniature CubeSats for education and research; and military/defense satellites.

Loading next visibility...
Identifier
65995, 2025-231A
Orbit
LEO
Country
Flag of CNCN / PRC
Related business
Manufacturer
CAST
Mission
Operational Civil Communications
Bus & Motor
XINGWANG C, Unknown motor
Mass
~700 kg wet, ~700 kg dry
Launch date (UTC)
2025-10-16 (8 months ago)
Launch vehicle
CHANG ZHENG 8A
Launch site
Wenchang Satellite Launch Center (WSC)
Object type
Payload
Rocket body
Debris
Shape & HBR
Box + 2 Pan, 1.9 m
Radar Cross Section
5.935 m², Large (>1 m²)

Expand to show TLE details & history
Last TLE update: 17 hours ago

TLE from 17 hours ago
0 HULIANWANG DIGUI-87
1 65995U 25231A   26171.24749609 -.00000115  00000-0  19102-4 0  9990
2 65995  49.9980 164.8641 0000800 255.5415 104.5369 13.29327109 33292
Epoch: 2026-06-20T05:56Z
TLE epoch observation values (Epoch: 2026-06-20T05:56:23.662Z)
Latitude
0.00005°
Longitude
167.30069°
Altitude
1,149.959 km
Speed
7.279 km/s
True Right ascension
10h 59m 27s
True Declination
0° 00' 00"
Sunlit
Object was in daylight at epoch
Visualization orbit readout
Latitude
Unknown
Longitude
Unknown
Altitude
Unknown
Speed
Unknown
Apparent Right ascension
Unknown
Apparent Declination
Unknown
Sunlit
N/A
Visualization observer readout
Local Sidereal Time
10:18:30
Azimuth
Unknown
Elevation
Unknown
Doppler factor
Unknown
Orbital elements
Apogee altitude
1,150.61 km
Perigee altitude
1,149.406 km
Semi-major axis
7,528.145 km
Eccentricity
0.00008
Inclination
49.998°
RAAN
164.8641°
Arg. of periapsis
255.5415°
True anomaly
104.54577°
Mean anomaly
104.5369°
Eccentric anomaly
104.54134°
Mean motion
3.32285 °/min
Orbital period
108.34 mins
BSTAR
0.000019102
Loading maneuver chart data...
Computing Atmospheric mass density...
Loading historical data...
Loading historical data...
Loading historical data...
Loading historical data...
Loading historical data...
Loading historical data...
Loading historical data...

Documentation

Showing up to 5 results
|